GFSMW_con_3kmhel_180.txt.gz
Helicity
498 505 470 442 389 328 316 299 302 279 254 247 234 204 178 156 140 100 47 35 37 46 40 41 38 21 28 14 5 4 54 63 47 1 63 58 69 74 88 52 54 45 40
619 621 594 555 435 319 324 348 328 272 245 236 226 223 184 172 133 101 95 81 72 49 60 34 18 7 -3 7 12 40 37 25 29 19 -11 32 45 79 45 119 63 94 29
692 665 657 595 484 361 320 356 358 320 276 261 296 303 279 216 177 156 130 85 93 91 62 51 26 17 4 -5 8 39 64 58 56 82 54 39 52 40 8 15 35 -9 18
624 674 714 660 490 326 308 343 367 359 316 272 290 247 222 207 153 126 113 116 113 90 78 71 49 53 44 40 16 17 31 52 73 57 76 67 52 1 -33 25 36 20 17
759 715 740 623 407 378 339 340 388 385 358 342 318 296 271 212 161 149 161 142 128 88 86 65 57 71 81 75 62 31 45 48 59 65 64 72 66 62 64 -3 -10 24 45
661 712 703 573 451 408 407 360 396 409 380 361 309 284 242 198 196 155 154 139 123 103 95 81 73 87 101 95 60 54 76 100 79 71 68 57 55 54 54 68 44 2 8
787 823 834 675 562 505 458 406 415 412 375 337 306 274 233 198 175 149 138 139 124 112 101 92 96 97 104 103 88 80 94 73 87 75 53 53 54 57 46 38 22 3 -3
863 904 858 743 648 570 480 457 415 403 356 313 290 261 234 201 168 148 134 123 120 112 103 121 112 105 101 95 104 109 73 73 79 75 63 66 65 66 66 58 32 -25 9
798 807 795 786 700 593 515 449 413 364 326 296 279 272 236 197 180 163 150 132 145 129 156 133 112 98 82 78 93 101 97 91 72 71 78 77 80 77 69 82 72 70 -23
601 651 742 809 695 556 501 470 395 330 301 301 292 259 232 204 183 172 156 148 148 154 153 127 113 88 68 70 88 104 98 81 71 56 66 79 82 83 76 91 87 122 108
525 648 741 746 684 554 537 452 413 343 330 309 290 264 259 227 187 170 143 144 139 151 138 122 108 88 79 83 105 99 88 57 45 48 53 63 78 77 80 80 94 111 102
467 587 682 694 638 611 567 481 427 387 344 298 293 280 269 225 203 171 148 138 141 151 126 119 102 89 85 87 92 87 62 40 29 28 39 45 56 58 59 76 76 86 88
396 488 535 572 605 682 644 541 469 441 372 331 296 286 266 244 194 164 148 143 147 152 120 128 112 94 82 81 72 65 45 27 15 26 33 35 42 48 70 67 80 103 81
326 401 493 586 732 696 673 590 541 472 378 335 273 266 248 226 175 150 149 151 132 136 151 115 96 97 97 81 75 58 40 27 29 34 40 49 51 56 67 71 108 95 81
356 438 536 632 684 747 688 612 616 445 338 307 261 223 224 215 178 155 149 143 141 146 147 123 140 117 92 71 63 63 42 18 30 46 62 66 64 99 104 122 117 110 107
394 392 518 615 707 738 726 736 705 454 410 321 256 295 238 213 173 163 166 171 174 179 162 148 150 120 106 120 117 97 41 36 50 59 80 91 94 107 128 120 117 125 108
324 394 559 677 770 873 874 858 690 522 409 306 336 298 269 232 198 188 184 183 186 171 182 196 155 148 130 133 132 111 44 51 65 82 93 101 114 118 130 118 101 110 84
192 336 573 719 780 858 858 853 739 545 329 396 327 292 280 239 213 213 209 201 185 206 225 226 155 157 144 145 133 126 59 68 79 94 109 118 112 122 115 124 107 97 105
327 462 619 750 756 907 946 869 737 634 373 294 287 287 283 247 236 232 216 212 235 257 257 234 226 191 169 163 143 133 77 75 80 103 111 111 112 90 119 120 102 104 101
369 550 689 866 845 899 813 861 685 319 309 334 269 290 260 248 249 233 256 248 269 265 243 234 186 174 127 150 146 121 82 75 89 97 103 97 118 123 126 123 112 119 81
482 633 668 741 834 896 798 662 363 354 372 309 297 289 267 266 258 271 263 266 271 255 217 192 163 144 141 125 123 110 101 98 104 104 106 112 92 110 115 111 106 101 90
392 480 588 614 526 554 565 441 399 371 317 325 313 324 291 286 259 269 250 250 232 214 190 173 159 142 130 118 102 105 97 107 116 113 114 109 103 110 106 101 96 102 95
468 488 557 598 524 519 526 507 381 293 297 300 318 323 302 263 226 238 232 221 203 190 170 155 149 141 128 105 85 92 84 102 130 133 123 119 119 112 108 85 97 102 100
453 513 584 582 601 462 352 366 319 297 301 308 295 265 246 230 226 222 206 199 189 165 146 134 118 112 97 88 105 119 89 88 118 113 95 108 109 110 104 91 89 98 91
381 343 399 384 320 319 308 288 275 268 275 254 236 213 205 219 234 207 174 170 123 125 113 93 92 101 80 72 88 74 109 127 145 119 116 122 127 129 127 108 93 93 90
444 441 377 368 306 294 270 227 207 215 219 201 196 196 206 222 218 214 207 143 116 86 81 72 93 55 34 62 93 103 163 146 169 128 117 122 129 131 125 114 100 84 79

GFSMW_con_3kmhel_186.txt.gz
Helicity
243 333 397 414 414 415 418 429 455 459 528 541 490 429 361 308 273 224 182 169 155 141 119 83 59 32 40 21 19 -30 11 82 89 45 75 88 38 106 55 45 27 40 66
333 364 391 414 446 472 442 450 462 490 501 481 428 387 348 313 279 240 226 189 166 137 116 75 52 31 33 48 43 15 -37 5 64 20 43 101 71 61 50 33 67 63 37
412 454 434 462 490 489 507 487 449 456 452 462 509 532 478 430 355 290 248 200 167 135 98 63 43 46 29 27 32 22 16 1 22 69 22 61 82 76 46 63 34 54 35
355 499 441 475 513 547 525 448 447 439 428 489 522 461 414 346 280 267 234 213 183 144 106 82 64 58 48 62 51 60 55 19 52 22 42 34 31 41 35 56 56 33 25
403 466 506 553 623 656 566 453 437 416 438 478 440 425 377 351 347 328 301 254 201 155 120 98 96 91 69 69 82 94 89 71 55 44 42 56 55 79 49 40 97 44 48
337 335 425 534 635 663 605 547 491 441 429 443 411 396 408 409 387 324 290 238 209 171 140 133 118 98 94 89 100 111 117 87 73 56 58 62 69 80 83 88 92 62 45
374 416 486 553 650 730 741 666 576 497 427 405 372 397 419 393 354 317 279 244 226 178 146 136 128 111 102 111 125 129 121 109 82 76 68 57 59 58 59 52 41 50 41
285 399 546 614 667 771 795 761 667 541 440 393 376 398 418 406 364 318 286 262 217 173 155 153 127 124 117 129 131 121 116 113 87 92 70 63 78 72 53 34 28 22 30
229 320 434 554 611 735 831 831 691 529 436 405 420 404 410 409 370 340 309 277 229 185 173 151 137 128 123 124 137 139 134 108 84 85 78 81 81 72 65 60 65 50 38
16 183 312 493 611 661 770 734 640 522 438 379 389 410 403 418 423 384 327 277 233 206 195 157 146 129 121 121 137 147 141 135 93 84 98 87 74 73 75 71 69 67 68
151 179 275 321 460 555 565 689 621 495 430 418 425 410 410 427 443 384 326 269 225 188 173 150 140 136 136 123 141 162 158 127 99 104 86 82 76 73 70 65 63 63 66
175 268 328 329 355 408 490 613 573 493 452 395 397 428 419 405 447 403 317 248 216 184 166 173 167 150 152 136 162 178 144 123 127 96 77 82 74 71 64 55 58 58 60
165 205 291 377 436 421 437 470 502 486 489 506 442 444 464 453 408 339 300 257 225 188 224 190 161 164 142 147 161 162 142 124 106 83 75 76 65 59 52 59 63 58 56
30 107 148 270 375 439 439 433 486 480 436 445 550 455 403 438 368 324 295 260 224 220 216 169 171 162 143 151 155 151 138 126 101 82 76 65 54 38 56 58 51 47 56
-63 2 88 168 259 376 407 417 468 518 563 502 411 401 370 403 376 342 292 274 199 200 177 194 200 179 165 144 147 135 132 119 106 83 80 74 48 80 72 65 59 55 97
50 92 152 180 255 341 375 402 468 517 594 574 528 466 428 437 409 397 442 236 212 199 201 212 197 173 169 149 139 136 137 114 100 86 77 70 78 77 73 72 79 118 101
43 127 193 252 348 383 413 436 472 599 636 641 641 519 426 477 553 582 384 175 208 194 210 202 189 194 180 144 107 128 122 104 86 80 71 74 77 77 77 89 100 99 104
93 75 85 114 210 347 397 484 550 585 610 658 715 586 559 616 685 405 167 209 179 183 202 196 211 220 177 144 139 129 115 105 87 71 62 63 65 85 80 89 83 93 110
102 111 84 142 202 357 470 499 417 572 676 779 800 752 714 601 295 195 187 200 208 210 204 231 256 250 197 161 158 125 112 107 94 90 78 79 82 79 95 108 96 98 112
60 26 14 197 283 345 453 433 424 594 676 816 937 804 562 287 240 189 230 205 199 205 236 253 244 202 204 169 153 134 116 107 98 106 99 99 93 86 92 110 110 102 108
78 83 140 242 312 393 436 431 511 548 836 983 961 606 319 249 170 224 236 227 247 264 256 250 226 206 183 176 163 143 128 109 110 97 99 93 81 98 91 96 103 86 147
44 113 160 242 283 335 396 438 500 597 668 742 636 370 287 185 196 258 230 250 284 292 268 233 215 195 183 167 154 144 131 139 123 114 91 79 103 105 94 95 72 100 140
88 143 183 214 221 294 314 391 386 461 524 497 423 308 185 178 227 240 260 277 269 254 228 219 208 193 180 157 142 143 122 147 122 110 109 121 116 113 93 77 81 124 127
105 106 154 199 232 274 317 315 361 388 407 372 299 188 175 212 224 233 239 249 238 234 216 215 199 189 174 142 131 128 100 121 123 117 109 93 90 78 60 68 78 99 102
156 158 211 226 226 225 189 205 234 284 261 217 183 164 206 234 243 231 207 205 180 173 192 184 193 190 160 125 117 112 90 90 80 89 94 92 89 82 66 66 77 85 92
184 195 157 129 118 131 156 177 161 166 198 195 171 185 217 222 228 252 251 181 166 159 164 161 163 112 109 105 103 118 121 110 123 117 96 86 84 80 60 62 72 84 87

GFSMW_con_3kmhel_189.txt.gz
Helicity
120 168 241 283 284 296 344 376 413 402 442 450 479 447 408 381 346 304 259 220 188 172 163 148 137 125 123 97 71 73 114 137 92 73 104 93 89 124 102 83 88 102 94
182 237 285 291 315 345 377 401 392 420 438 432 409 410 390 364 321 307 282 237 208 184 167 148 141 128 110 99 90 72 65 116 128 93 97 112 97 97 97 77 84 96 85
168 246 304 320 351 391 445 444 434 426 418 414 419 453 478 461 425 357 319 258 214 188 170 163 152 135 106 108 106 104 98 80 120 141 99 106 137 110 76 87 68 64 65
141 197 273 345 420 505 526 480 510 456 414 414 473 472 485 450 352 323 293 262 226 213 185 160 151 141 113 118 111 106 118 89 80 84 112 118 98 106 104 81 83 70 82
150 204 277 357 417 523 539 522 495 440 440 446 479 481 405 368 354 339 323 296 254 219 187 169 154 137 130 126 118 139 147 112 87 74 55 83 80 90 59 80 91 46 57
163 205 224 249 297 476 521 525 489 455 453 487 480 426 405 421 429 388 350 302 276 241 201 184 167 152 140 130 145 157 144 107 100 102 106 105 91 92 79 68 80 72 56
113 164 244 297 294 391 518 533 493 465 475 455 437 388 376 375 343 342 324 307 288 252 220 201 175 146 141 149 161 150 138 119 122 111 106 101 110 100 96 73 74 49 56
31 59 167 287 355 397 441 558 590 584 539 508 424 412 365 396 338 301 312 296 273 260 234 217 182 162 157 162 162 151 144 131 118 120 115 106 98 80 82 67 57 59 39
263 189 94 213 276 359 448 508 572 578 568 504 455 412 384 359 324 292 290 309 302 292 252 227 195 169 172 170 154 151 150 129 119 133 131 116 95 76 58 49 49 44 32
140 124 21 88 134 197 268 368 475 580 554 488 471 442 387 339 317 311 313 305 330 325 308 232 205 168 165 163 160 164 153 135 131 133 130 120 109 82 78 77 59 34 44
49 40 32 36 51 116 181 259 384 506 515 504 449 409 395 356 373 325 321 380 382 309 254 236 195 174 174 159 172 168 149 158 159 136 127 131 96 96 97 74 62 61 69
59 -21 -66 -7 92 140 156 218 279 395 446 454 450 402 398 367 349 391 424 400 326 288 268 218 201 165 172 154 145 159 166 175 168 150 127 122 113 117 99 81 78 70 59
64 18 -9 -37 16 115 164 132 201 277 331 370 410 418 418 424 377 399 386 344 319 303 251 215 182 158 152 152 148 171 178 164 153 139 134 131 125 120 96 80 87 68 65
23 -15 -19 -18 -41 -1 145 172 209 257 353 281 350 410 473 465 410 393 349 321 308 277 240 188 187 144 152 142 162 159 150 156 160 141 141 117 121 102 92 85 69 64 63
34 43 57 72 110 44 60 115 179 265 342 353 340 430 526 498 422 377 299 262 266 250 215 203 216 164 132 133 129 135 147 151 149 142 121 135 123 110 93 78 74 62 66
63 27 37 50 98 161 187 89 160 277 314 335 412 446 528 525 494 478 341 235 284 273 255 285 142 125 119 123 127 145 147 145 132 116 135 127 98 94 84 78 65 89 72
22 53 44 87 145 119 246 265 268 348 360 410 464 517 610 635 653 481 436 324 274 307 178 174 136 116 138 127 141 145 138 123 122 125 137 120 109 88 83 72 73 77 82
4 31 38 53 93 97 106 135 239 368 398 498 584 612 696 751 633 559 494 387 265 205 181 154 138 145 134 124 135 128 120 110 112 116 131 117 107 103 83 92 86 82 84
49 38 29 35 47 105 158 192 215 307 371 521 605 633 801 837 725 562 395 281 280 227 186 164 169 159 167 160 121 101 118 113 122 125 121 106 98 85 86 96 98 82 78
86 75 67 33 0 69 235 297 252 254 354 436 579 731 819 732 534 307 302 284 232 193 181 183 174 195 194 155 135 105 105 119 122 118 115 107 102 99 102 98 89 83 79
14 23 -8 15 69 85 164 164 238 289 386 572 726 867 763 498 316 350 299 260 205 192 188 183 212 200 172 158 137 130 112 109 127 128 115 113 111 117 118 106 95 82 95
8 35 27 36 140 117 147 193 232 345 461 564 606 495 454 384 369 325 265 205 190 173 181 214 202 179 168 162 151 136 121 128 128 120 112 107 119 122 117 107 98 81 103
15 44 98 145 116 112 147 175 262 357 364 362 346 365 351 335 289 252 210 182 121 181 204 199 188 180 177 161 144 147 133 128 118 112 126 120 111 101 94 96 86 77 87
33 58 110 98 136 130 126 179 241 278 305 321 307 280 288 244 199 172 161 166 181 188 187 182 186 185 166 164 168 151 126 115 103 113 112 106 97 90 74 71 79 78 84
95 66 96 105 120 101 130 155 183 219 240 229 248 225 216 188 160 144 123 144 151 159 165 156 174 186 179 169 157 136 124 117 109 116 96 98 102 98 92 88 85 80 87
118 80 89 107 109 104 130 129 106 157 224 196 173 173 164 122 127 168 213 191 173 161 150 168 171 167 183 158 133 148 105 108 105 84 98 103 96 94 91 84 75 72 74

GFSMW_con_3kmhel_195.txt.gz
Helicity
76 108 80 115 61 160 309 298 240 208 260 318 339 339 314 324 321 311 312 267 284 250 232 216 184 158 145 153 140 137 123 119 90 85 81 85 95 107 120 109 124 101 96
55 93 120 118 112 130 305 310 251 229 218 286 326 314 311 302 296 321 301 295 299 281 249 225 205 184 194 165 146 143 149 138 90 62 67 52 73 87 102 115 111 113 95
27 56 178 129 97 100 264 296 275 259 223 250 305 322 336 347 345 347 323 338 316 286 276 249 244 217 197 189 169 144 124 140 125 104 96 90 89 180 134 99 127 97 100
12 37 119 137 106 92 215 262 253 264 281 259 282 329 414 414 370 370 327 348 333 319 297 277 259 236 228 208 197 184 166 143 138 132 127 146 176 151 147 106 94 95 89
205 150 63 148 134 101 167 248 225 240 267 300 375 386 370 325 302 324 330 347 339 326 302 296 272 264 249 236 224 213 201 182 154 134 140 143 154 141 145 138 88 63 92
238 255 278 96 161 91 65 166 202 241 248 289 365 342 310 283 316 367 350 376 372 358 312 294 294 287 273 249 243 237 216 200 186 174 160 145 169 151 147 146 178 166 163
190 217 237 156 184 114 81 115 160 189 259 281 288 328 317 299 301 287 300 316 347 350 332 321 320 312 285 267 246 235 217 192 180 178 176 182 185 163 162 168 171 157 159
208 239 222 206 205 144 83 76 90 123 220 292 250 300 288 260 283 292 344 297 287 308 308 311 307 300 305 280 263 228 210 209 209 192 177 199 179 150 153 173 175 161 127
221 225 219 171 114 71 74 101 66 55 119 202 228 222 234 243 326 299 318 313 323 310 325 337 312 310 299 281 255 243 206 209 182 180 181 182 162 153 150 154 160 183 189
190 153 120 127 101 102 61 17 20 36 50 112 235 251 263 224 317 380 362 360 338 331 325 337 375 330 300 289 273 231 184 175 171 165 163 177 150 152 140 133 133 133 143
305 199 119 77 55 51 48 24 -11 -37 -9 38 224 238 197 249 361 387 395 423 407 456 353 392 381 353 328 290 270 200 211 189 190 182 166 164 159 134 126 117 120 138 134
304 137 83 37 29 23 8 9 12 -4 -42 -20 109 253 240 277 388 386 387 463 488 437 427 421 390 365 295 244 220 180 177 176 179 152 164 168 119 127 124 138 155 148 138
131 80 40 26 17 13 18 12 5 17 35 40 55 132 182 310 362 506 484 433 463 500 438 441 438 479 368 370 275 266 176 191 182 171 163 147 122 114 149 164 143 142 139
-6 6 12 29 31 21 12 26 21 26 35 58 114 117 142 176 332 498 560 601 558 470 482 524 501 490 425 510 356 232 187 187 204 211 225 179 137 158 159 143 151 161 158
21 10 31 36 46 56 45 24 42 30 34 35 70 131 177 186 311 442 686 701 578 528 545 565 515 480 463 416 334 222 198 210 190 202 211 158 216 230 217 187 220 201 186
59 51 39 37 64 79 83 86 50 42 37 47 52 91 209 258 392 560 644 561 620 549 555 533 560 537 440 449 365 292 231 163 158 203 219 137 135 135 149 168 174 167 179
21 35 118 126 95 95 89 81 66 33 58 65 82 117 152 367 465 551 553 594 551 551 564 609 614 580 615 476 442 292 226 229 215 225 153 129 149 135 143 123 112 108 102
118 93 62 41 48 76 75 69 79 75 74 75 106 127 228 344 524 544 539 607 614 649 720 679 519 537 469 367 286 220 249 220 242 156 150 151 146 172 174 161 136 130 127
119 62 22 79 53 41 53 54 53 80 85 100 118 136 285 363 448 470 545 649 852 920 696 433 420 474 381 271 222 213 216 173 107 106 136 153 153 206 170 154 137 134 127
8 16 32 87 44 47 69 54 53 79 101 136 188 202 457 506 544 644 712 751 723 529 426 444 441 360 259 173 158 155 133 91 101 120 159 161 164 185 156 149 153 138 137
38 31 47 32 39 48 48 58 80 101 298 396 478 563 657 666 652 677 632 525 457 482 476 432 359 264 182 127 115 71 83 103 137 131 129 164 158 160 150 150 136 157 147
31 23 51 54 58 78 81 57 176 183 334 343 375 444 475 479 458 495 448 405 434 469 395 339 293 230 183 145 105 87 97 137 128 135 161 264 176 157 130 110 144 123 106
26 39 63 58 85 81 104 147 147 173 252 268 316 331 465 330 372 389 372 408 408 351 334 310 264 219 150 129 103 110 117 155 172 152 277 292 183 121 91 62 96 84 103
32 51 50 43 77 80 115 91 109 175 195 199 192 213 271 262 312 318 342 331 281 274 255 217 172 166 131 133 124 128 136 161 173 212 187 163 134 93 91 109 72 82 129
27 41 30 35 82 128 85 91 125 166 161 184 193 213 229 243 243 201 172 203 189 173 144 120 132 151 139 133 116 104 92 111 131 137 140 112 87 97 103 113 127 119 113
30 39 29 108 124 88 80 99 113 159 181 188 194 188 174 158 145 181 228 214 144 108 96 123 128 145 114 176 190 169 233 253 213 159 124 112 132 131 138 141 124 118 116